Flag for U.S.A. Weather past 2 weeks in Moreno Valley, California, U.S.A.

Now
94 °F

Passing clouds.


Feels Like: 91 °F
Forecast: 66 / 94 °F
Wind: 13 mph from Northwest

Location: Riverside / March Air Force Base

Current Time: Jul 29, 2014 at 4:19:49 PM

Latest Report: Jul 29, 2014 at 3:58 PM


Visibility: 10 mi

Pressure: 29.93 "Hg

Humidity: 23%

Dew point: 52 °F

Location of Moreno ValleyLocation

Historic Weather in Moreno Valley — Graph

°F

Moreno Valley temperature yesterday

Maximum temperature yesterday: 94 °F (at 2:58 PM)
Minimum temperature yesterday: 72 °F (at 5:58 AM)
Average temperature yesterday: 81 °F

Past Weeks' High & Low Weather Summary

 TemperatureHumidityPressure
High105 °F (Jul 24, 2:58 PM)91% (Jul 18, 5:58 AM)30.08 "Hg (Jul 18, 5:58 AM)
Low56 °F (Jul 18, 5:58 AM)9% (Jul 24, 12:58 PM)29.73 "Hg (Jul 24, 5:58 PM)
Average77 °F52%29.96 "Hg
* Reported Jul 14 2:58 PM — Jul 29 2:58 PM, Moreno Valley, Weather by CustomWeather, © 2014

Note: Actual official high and low records may vary slightly from our data, if they occured in-between our weather recording intervals... More about our weather records

Advertising

Moreno Valley weather history for previous 24 hours

 ConditionsComfort  
Time TempWeatherWind HumidityBarometerVisibility
2:58 PM
Jul 29
94 °FOvercast.9 mph23%29.95 "Hg10 mi
1:58 PM94 °FScattered clouds.10 mph20%29.96 "Hg10 mi
12:58 PM92 °FScattered clouds.9 mph21%29.99 "Hg10 mi
11:58 AM92 °FSunny.7 mph20%30.00 "Hg10 mi
10:58 AM89 °FSunny.1 mph21%30.01 "Hg10 mi
9:58 AM86 °FSunny.1 mph23%30.02 "Hg10 mi
8:58 AM81 °FSunny.2 mph21%30.03 "Hg10 mi
7:58 AM76 °FSunny.1 mph25%30.03 "Hg10 mi
6:58 AM71 °FSunny.No wind27%30.03 "Hg10 mi
5:58 AM67 °FClear.No wind31%30.02 "Hg10 mi
4:58 AM67 °FClear.1 mph31%30.01 "Hg10 mi
3:58 AM70 °FClear.No wind25%30.01 "Hg10 mi
2:58 AM70 °FClear.No wind25%30.07 "Hg10 mi
1:58 AM71 °FClear.No wind22%30.03 "Hg10 mi
12:58 AM73 °FClear.No wind20%30.03 "Hg10 mi
11:58 PM
Jul 28
72 °FClear.5 mph22%30.07 "Hg10 mi
10:58 PM76 °FClear.1 mph18%30.08 "Hg10 mi
9:58 PM78 °FClear.7 mph18%30.07 "Hg10 mi
8:58 PM80 °FClear.8 mph21%30.01 "Hg10 mi
7:58 PM83 °FSunny.12 mph31%30.00 "Hg10 mi
6:58 PM88 °FSunny.13 mph32%29.98 "Hg10 mi
5:58 PM91 °FSunny.14 mph23%29.95 "Hg10 mi
4:58 PM93 °FSunny.12 mph18%29.97 "Hg10 mi
Weather by CustomWeather, © 2014

See weather overviewHow to use our weather pages